[[{"header":{"parameterUnit":"m.s-1","parameterCategory":1,"la1":30.2991,"la2":30.254,"lo1":-89.0895,"lo2":-89.0444,"dy":0.0017,"dx":0.0017,"nx":28,"ny":28,"refTime":"2024-10-04T21:00:00:Z","depth":0,"parameterNumber":2,"parameterNumberName":"U-component_of_WINDS"},"data":[0,0,0,0,0,0,0,0,0,0,0,0,0,0,0,0,0,0,0,0,0,0,0,0,0,0,0,0,0,0,0,0,0,0,0,0,0,0,0,0,0,0,0,0,0,0,0,0,0,0,0,0,0,0,0,0,0,0,-1.4837,-1.4837,0,-1.4889,-1.4889,-1.489,-1.4755,-1.475,-1.4746,-1.4742,-1.4803,-1.4808,-1.4814,0,0,0,0,0,0,0,0,0,0,0,0,0,-1.4627,-1.4632,-1.4837,-1.4837,-1.4838,-1.4889,-1.4889,-1.489,-1.4755,-1.475,-1.4745,-1.474,-1.4801,-1.4807,-1.4814,0,0,0,0,0,0,0,0,0,0,0,0,0,-1.4703,-1.4633,-1.4837,-1.4777,-1.4772,-1.4889,-1.4889,-1.489,-1.4756,-1.475,-1.4744,-1.4738,-1.4799,-1.4807,-1.4815,-1.4995,0,0,-1.4841,-1.4844,0,0,0,0,0,0,0,0,-1.4699,-1.4711,-1.4785,-1.4781,-1.4776,-1.4808,-1.4838,-1.4926,-1.4758,-1.4763,-1.4742,-1.4734,-1.481,-1.4817,-1.4841,-1.4997,-1.5,-1.4841,-1.4846,-1.485,-1.4852,0,0,0,0,0,0,0,-1.4694,-1.4708,-1.4857,-1.4786,-1.4781,-1.4749,-1.4753,-1.4854,-1.4822,-1.4762,-1.4752,-1.4759,-1.4807,-1.4834,-1.4842,-1.5001,-1.4841,-1.4849,-1.4854,-1.4857,-1.5309,-1.5316,0,0,0,0,0,0,-1.4695,-1.4704,-1.4856,-1.4859,-1.472,-1.4758,-1.4762,-1.4805,-1.482,-1.4816,-1.4765,-1.4753,-1.4822,-1.4832,-1.4843,-1.5057,-1.485,-1.4858,-1.4863,-1.5303,-1.5311,-1.5319,0,0,0,0,0,0,-1.4691,-1.471,-1.4854,-1.4779,-1.4795,-1.4769,-1.4817,-1.4809,-1.4836,-1.4823,-1.4817,-1.4798,-1.4818,-1.4832,-1.4958,-1.5057,-1.4862,-1.4869,-1.5294,-1.5305,-1.5315,-1.5485,0,0,0,0,0,0,-1.4686,-1.4709,-1.4776,-1.4781,-1.4799,-1.4966,-1.4823,-1.4815,-1.485,-1.4835,-1.4852,-1.4849,-1.4814,-1.4946,-1.4966,-1.5065,-1.4876,-1.5285,-1.5299,-1.5311,-1.5471,-1.55,-1.5525,0,0,0,0,0,-1.4679,-1.4823,-1.478,-1.4799,-1.4882,-1.4972,-1.4983,-1.4937,-1.4858,-1.4926,-1.4918,-1.4849,-1.5042,-1.496,-1.4982,-1.5085,-1.5279,-1.5295,-1.531,-1.5458,-1.5494,-1.5525,0,0,0,0,0,0,-1.4833,-1.4823,-1.4775,-1.4925,-1.495,-1.4949,-1.5034,-1.4976,-1.5027,-1.5011,-1.4954,-1.4959,-1.5097,-1.5103,-1.5012,-1.526,-1.5147,-1.5168,-1.5253,-1.5287,-1.5313,-1.5311,-1.4883,0,0,0,0,0,-1.4883,-1.4955,-1.4943,-1.5077,-1.5092,-1.5061,-1.5098,-1.5061,-1.5086,-1.5097,-1.5097,-1.5126,-1.5194,-1.524,-1.5301,-1.5469,-1.5473,-1.555,-1.5578,-1.56,-1.5621,-1.5713,-1.5748,-1.537,-1.537,-1.537,0,0,-1.499,-1.4993,-1.5043,-1.5108,-1.5123,-1.5202,-1.5071,-1.5159,-1.5218,-1.5111,-1.5231,-1.5232,-1.5261,-1.541,-1.5475,-1.5419,-1.5725,-1.562,-1.5638,-1.5647,-1.5733,-1.5769,-1.5801,-1.5381,-1.5379,-1.5377,0,0,-1.5226,-1.5234,-1.5347,-1.5364,-1.5388,-1.5366,-1.5394,-1.5401,-1.5398,-1.5516,-1.5438,-1.5507,-1.5624,-1.5648,-1.5676,-1.592,-1.586,-1.5941,-1.6087,-1.6177,-1.6207,-1.6233,-1.6324,-1.6357,-1.596,-1.5961,-1.5961,0,-1.5357,-1.547,-1.5413,-1.5507,-1.5539,-1.5442,-1.5559,-1.5579,-1.5623,-1.5648,-1.5583,-1.5728,-1.574,-1.5895,-1.5954,-1.5978,-1.6011,-1.5941,-1.6207,-1.6233,-1.6256,-1.6343,-1.6376,-1.5971,-1.597,-1.5969,-1.5968,0,-1.5631,-1.5711,-1.5799,-1.5842,-1.5884,-1.5988,-1.595,-1.5999,-1.5958,-1.5944,-1.6067,-1.6078,-1.614,-1.6173,-1.6134,-1.6324,-1.6288,-1.6216,-1.6102,-1.6304,-1.6384,-1.6416,-1.5986,-1.5982,-1.5979,-1.5976,0,0,-1.5969,-1.5977,-1.6011,-1.603,-1.6049,-1.6111,-1.6211,-1.627,-1.6315,-1.6348,-1.6434,-1.6534,-1.6467,-1.6499,-1.6461,-1.654,-1.6737,-1.6458,-1.6458,-1.6514,-1.6951,-1.7009,-1.7048,-1.6695,-1.6701,-1.6706,-1.695,0,-1.6204,-1.6375,-1.6327,-1.65,-1.6574,-1.6483,-1.6571,-1.6593,-1.6583,-1.6646,-1.6634,-1.6708,-1.6612,-1.6631,-1.6705,-1.6698,-1.6825,-1.6679,-1.6779,-1.6783,-1.6779,-1.7089,-1.715,-1.738,-1.6981,-1.6986,-1.6989,0,-1.6502,-1.6545,-1.6725,-1.6732,-1.6761,-1.6842,-1.6892,-1.6953,-1.6977,-1.6964,-1.6999,-1.6945,-1.7047,-1.6929,-1.7071,-1.6973,-1.701,-1.7013,-1.7021,-1.7032,-1.6902,-1.7113,-1.7452,-1.7488,-1.7038,-1.7034,-1.703,0,-1.6736,-1.6838,-1.6959,-1.6978,-1.6988,-1.7047,-1.7054,-1.7071,-1.711,-1.7155,-1.718,-1.7237,-1.727,-1.7316,-1.7281,-1.7197,-1.743,-1.7308,-1.7425,-1.7427,-1.7483,-1.7481,-1.7837,-1.7499,-1.7499,-1.7498,-1.7497,0,-1.7006,-1.7121,-1.7064,-1.714,-1.7266,-1.7209,-1.7337,-1.7334,-1.735,-1.7426,-1.7349,-1.7422,-1.7367,-1.7436,-1.7409,-1.7533,-1.7547,-1.7542,-1.7534,-1.7552,-1.7553,-1.7579,-1.7564,-1.7507,-1.7505,-1.7503,-1.7502,0,-1.729,-1.7256,-1.7383,-1.7381,-1.7384,-1.7478,-1.7477,-1.7548,-1.753,-1.7627,-1.7646,-1.762,-1.7697,-1.7664,-1.7746,-1.7727,-1.7888,-1.7857,-1.788,-1.7874,-1.7995,-1.7986,-1.8384,-1.8435,-1.8061,-1.8064,-1.8067,0,-1.7468,-1.7554,-1.7561,-1.7604,-1.7616,-1.7688,-1.7726,-1.7674,-1.7718,-1.7752,-1.782,-1.7889,-1.7943,-1.8071,-1.8061,-1.8124,-1.8096,-1.8231,-1.8106,-1.8121,-1.8104,-1.8101,-1.8111,-1.8259,-1.8263,-1.8266,-1.8269,0,-1.7788,-1.7766,-1.7823,-1.7876,-1.7924,-1.7963,-1.7996,-1.8037,-1.7986,-1.804,-1.8116,-1.8158,-1.824,-1.8312,-1.8367,-1.8377,-1.8318,-1.8308,-1.8339,-1.8361,-1.8372,-1.8372,-1.7954,-1.83,-1.8297,-1.8295,-1.8293,-1.8292,-1.8026,-1.8099,-1.8116,-1.8183,-1.8201,-1.8234,-1.8301,-1.8291,-1.8353,-1.8415,-1.838,-1.8471,-1.8494,-1.8562,-1.858,-1.8652,-1.8599,-1.8644,-1.8656,-1.8669,-1.8687,-1.8356,-1.8661,-1.866,-1.8659,-1.8659,-1.8658,0,-1.8346,-1.8351,-1.8413,-1.8461,-1.8515,-1.8448,-1.8481,-1.8532,-1.8612,-1.8637,-1.869,-1.878,-1.8849,-1.8843,-1.8908,-1.8967,-1.8941,-1.8986,-1.8984,-1.8988,-1.8728,-1.8697,-1.9006,-1.9006,-1.9006,-1.9005,-1.9005,-1.9005,-1.8519,-1.8639,-1.862,-1.875,-1.8755,-1.8841,-1.8867,-1.8897,-1.8917,-1.902,-1.9076,-1.907,-1.9085,-1.9149,-1.9211,-1.9207,-1.9237,-1.9293,-1.9281,-1.904,-1.9005,-1.8973,-1.8943,-1.9299,-1.9299,-1.9535,-1.9537,-1.9538]},{"header":{"parameterUnit":"m.s-1","parameterCategory":1,"la1":30.2991,"la2":30.254,"lo1":-89.0895,"lo2":-89.0444,"dy":0.0017,"dx":0.0017,"nx":28,"ny":28,"refTime":"2024-10-04T21:00:00:Z","depth":0,"parameterNumber":3,"parameterNumberName":"V-component_of_WINDS"},"data":[0,0,0,0,0,0,0,0,0,0,0,0,0,0,0,0,0,0,0,0,0,0,0,0,0,0,0,0,0,0,0,0,0,0,0,0,0,0,0,0,0,0,0,0,0,0,0,0,0,0,0,0,0,0,0,0,0,0,-1.4418,-1.4419,0,-1.4529,-1.453,-1.4532,-1.4598,-1.4599,-1.4599,-1.4599,-1.4712,-1.4714,-1.4717,0,0,0,0,0,0,0,0,0,0,0,0,0,-1.426,-1.4262,-1.4417,-1.4419,-1.442,-1.4529,-1.453,-1.4532,-1.4598,-1.4599,-1.4599,-1.46,-1.4711,-1.4714,-1.4717,0,0,0,0,0,0,0,0,0,0,0,0,0,-1.4345,-1.4263,-1.4417,-1.4467,-1.4472,-1.4528,-1.453,-1.4532,-1.4598,-1.4599,-1.4599,-1.46,-1.471,-1.4714,-1.4718,-1.4733,0,0,-1.473,-1.4732,0,0,0,0,0,0,0,0,-1.434,-1.4351,-1.4458,-1.4463,-1.447,-1.455,-1.4516,-1.46,-1.4598,-1.455,-1.4599,-1.46,-1.4657,-1.4666,-1.4686,-1.4738,-1.4743,-1.473,-1.4733,-1.4735,-1.4736,0,0,0,0,0,0,0,-1.4334,-1.4347,-1.4462,-1.4459,-1.4466,-1.4482,-1.4495,-1.4532,-1.46,-1.4555,-1.456,-1.4572,-1.4661,-1.4682,-1.4689,-1.4745,-1.473,-1.4734,-1.4736,-1.4738,-1.4815,-1.4815,0,0,0,0,0,0,-1.4321,-1.4341,-1.4458,-1.4465,-1.4405,-1.4485,-1.4499,-1.4524,-1.46,-1.4612,-1.4571,-1.4575,-1.4674,-1.4684,-1.4693,-1.4716,-1.4735,-1.4738,-1.4741,-1.4815,-1.4815,-1.4814,0,0,0,0,0,0,-1.4317,-1.4331,-1.4454,-1.4405,-1.4421,-1.4487,-1.4514,-1.4526,-1.4547,-1.4613,-1.4625,-1.4581,-1.4675,-1.4687,-1.4723,-1.472,-1.474,-1.4744,-1.4816,-1.4815,-1.4815,-1.4761,0,0,0,0,0,0,-1.4313,-1.4329,-1.4336,-1.4404,-1.4424,-1.4482,-1.4514,-1.4528,-1.4554,-1.4559,-1.4624,-1.4635,-1.4677,-1.4716,-1.4727,-1.4726,-1.4747,-1.4816,-1.4815,-1.4815,-1.4763,-1.4758,-1.4754,0,0,0,0,0,-1.4307,-1.4316,-1.4336,-1.435,-1.4434,-1.4481,-1.4493,-1.454,-1.4553,-1.4561,-1.4603,-1.4633,-1.4719,-1.4719,-1.4732,-1.4732,-1.4817,-1.4816,-1.4815,-1.4765,-1.4759,-1.4754,0,0,0,0,0,0,-1.4246,-1.4326,-1.4349,-1.4381,-1.4424,-1.4493,-1.4503,-1.4533,-1.4572,-1.4576,-1.4633,-1.4647,-1.4676,-1.4708,-1.4707,-1.4751,-1.4771,-1.4773,-1.4729,-1.4724,-1.472,-1.4711,-1.475,0,0,0,0,0,-1.4236,-1.4269,-1.4337,-1.4358,-1.4379,-1.4437,-1.446,-1.4493,-1.4539,-1.4557,-1.4602,-1.4645,-1.4682,-1.4705,-1.4742,-1.4768,-1.4783,-1.4775,-1.477,-1.4766,-1.4767,-1.4782,-1.4779,-1.4812,-1.4812,-1.4812,0,0,-1.4217,-1.4264,-1.4281,-1.4347,-1.4385,-1.4416,-1.4452,-1.4484,-1.4508,-1.4562,-1.4598,-1.4632,-1.4684,-1.4714,-1.473,-1.4742,-1.4761,-1.4765,-1.4762,-1.4764,-1.4781,-1.4777,-1.4775,-1.4811,-1.4811,-1.4811,0,0,-1.4197,-1.4237,-1.4259,-1.4295,-1.4351,-1.4389,-1.4394,-1.4459,-1.4484,-1.4521,-1.4562,-1.4591,-1.4653,-1.4688,-1.4714,-1.4706,-1.4736,-1.4717,-1.4694,-1.4708,-1.4706,-1.4704,-1.47,-1.4698,-1.4717,-1.4717,-1.4717,0,-1.4165,-1.4215,-1.4266,-1.4296,-1.4323,-1.4374,-1.4396,-1.4429,-1.4494,-1.4511,-1.4524,-1.4602,-1.4641,-1.468,-1.4678,-1.4697,-1.4704,-1.471,-1.4702,-1.4701,-1.4699,-1.4697,-1.4695,-1.4715,-1.4715,-1.4715,-1.4715,0,-1.4172,-1.4206,-1.4217,-1.4279,-1.4307,-1.4333,-1.4387,-1.441,-1.444,-1.4477,-1.4514,-1.4562,-1.461,-1.4622,-1.4651,-1.4664,-1.467,-1.4691,-1.4713,-1.4693,-1.4691,-1.469,-1.4711,-1.4712,-1.4712,-1.4713,0,0,-1.4118,-1.4207,-1.421,-1.4238,-1.4303,-1.433,-1.4357,-1.4404,-1.4422,-1.4465,-1.4489,-1.454,-1.456,-1.459,-1.4624,-1.4636,-1.4626,-1.4656,-1.4658,-1.4648,-1.4642,-1.4625,-1.4623,-1.4646,-1.4646,-1.4646,-1.4637,0,-1.4107,-1.4159,-1.4206,-1.4241,-1.4272,-1.4321,-1.4344,-1.4386,-1.4421,-1.4452,-1.4491,-1.4526,-1.4551,-1.4569,-1.4583,-1.4624,-1.4625,-1.4625,-1.4668,-1.4669,-1.4652,-1.4622,-1.4604,-1.4593,-1.4637,-1.4637,-1.4637,0,-1.4101,-1.4142,-1.418,-1.4241,-1.4256,-1.4276,-1.4323,-1.4352,-1.44,-1.4425,-1.4457,-1.4493,-1.4524,-1.4542,-1.4584,-1.4583,-1.4603,-1.4626,-1.4627,-1.4632,-1.4651,-1.4625,-1.4591,-1.4589,-1.4637,-1.4637,-1.4637,0,-1.4056,-1.412,-1.4151,-1.4174,-1.4246,-1.4259,-1.429,-1.4339,-1.4364,-1.4404,-1.4421,-1.4464,-1.4487,-1.452,-1.4566,-1.4575,-1.4603,-1.4625,-1.4623,-1.4622,-1.4626,-1.4625,-1.4594,-1.464,-1.464,-1.464,-1.464,0,-1.4038,-1.4059,-1.4132,-1.4151,-1.4175,-1.4229,-1.4251,-1.4286,-1.4329,-1.4355,-1.44,-1.4423,-1.4483,-1.4513,-1.455,-1.4578,-1.4589,-1.4609,-1.4618,-1.4604,-1.4602,-1.4618,-1.4619,-1.464,-1.464,-1.464,-1.464,0,-1.3992,-1.4041,-1.4078,-1.4143,-1.416,-1.4175,-1.4231,-1.4251,-1.4289,-1.4321,-1.4331,-1.439,-1.4428,-1.4477,-1.4531,-1.4555,-1.4579,-1.4594,-1.4563,-1.4568,-1.4563,-1.4562,-1.454,-1.4539,-1.4586,-1.4586,-1.4585,0,-1.3977,-1.3994,-1.4061,-1.4082,-1.4111,-1.4144,-1.417,-1.4223,-1.4248,-1.4303,-1.4316,-1.4357,-1.4393,-1.4451,-1.4498,-1.4539,-1.4554,-1.4544,-1.4561,-1.4546,-1.4553,-1.4551,-1.4553,-1.4539,-1.4539,-1.4538,-1.4537,0,-1.3945,-1.3968,-1.4004,-1.4048,-1.4077,-1.4114,-1.4153,-1.4168,-1.4228,-1.4254,-1.4293,-1.4321,-1.4375,-1.4415,-1.4462,-1.4493,-1.4525,-1.4532,-1.4533,-1.4519,-1.45,-1.4509,-1.455,-1.4532,-1.4533,-1.4533,-1.4533,-1.4533,-1.3913,-1.3931,-1.398,-1.4018,-1.4053,-1.4088,-1.411,-1.415,-1.4184,-1.4233,-1.4262,-1.4299,-1.4347,-1.4413,-1.4442,-1.4472,-1.4485,-1.4487,-1.4487,-1.4487,-1.4482,-1.4496,-1.4481,-1.4481,-1.4481,-1.4482,-1.4482,0,-1.3883,-1.3917,-1.3952,-1.4005,-1.4034,-1.4062,-1.4107,-1.4129,-1.4162,-1.4204,-1.4238,-1.4282,-1.4321,-1.4371,-1.4414,-1.4428,-1.4443,-1.4437,-1.4436,-1.4442,-1.4469,-1.4463,-1.4424,-1.4424,-1.4424,-1.4424,-1.4424,-1.4424,-1.387,-1.3901,-1.393,-1.3978,-1.4012,-1.405,-1.4073,-1.4105,-1.4138,-1.4186,-1.4219,-1.4252,-1.4296,-1.4342,-1.4379,-1.4392,-1.4405,-1.4394,-1.4412,-1.4436,-1.4441,-1.4446,-1.444,-1.4397,-1.4397,-1.4383,-1.4383,-1.4383]}]]